Theta_e
312 312 314 315 315 315 315 314 315 314 315 314 314 313 312 309 308 307 306 305 304 304 303 303 305 305 305 305 305 305 305 305 305 305 306 308 309 311 312 312 313 314 316 318
316 312 313 313 313 315 315 314 313 314 314 313 313 312 311 309 307 307 306 305 304 303 302 302 302 302 302 302 303 303 303 303 303 303 303 304 307 308 311 312 312 313 313 314
317 312 312 314 310 312 314 314 314 315 313 312 312 312 311 308 307 306 305 304 303 303 302 301 301 302 302 302 302 302 302 302 302 302 302 303 303 306 307 310 311 312 312 312
317 313 318 310 308 309 309 311 312 312 311 311 312 311 307 306 306 305 304 303 302 302 302 301 300 300 300 300 301 301 301 302 302 302 302 302 303 305 307 307 310 311 311 311
317 314 311 309 309 310 311 312 310 311 309 309 307 306 306 303 302 302 301 301 300 299 299 299 299 298 298 297 297 297 299 300 300 301 301 302 303 305 306 307 307 309 310 310
313 315 313 311 308 308 308 312 308 308 309 308 307 312 308 302 301 301 300 299 298 298 297 297 297 295 294 294 294 294 295 295 297 299 299 300 302 304 305 306 306 307 309 309
313 313 312 308 307 306 311 310 307 307 307 307 309 305 302 300 300 299 297 296 294 294 294 293 293 292 291 292 292 292 292 293 293 294 297 299 300 302 304 305 305 306 307 308
310 311 310 307 307 309 307 304 306 305 305 305 304 302 300 299 298 296 295 294 293 293 293 293 293 292 291 291 292 291 290 291 291 291 292 294 298 299 302 302 303 304 305 306
309 310 306 306 307 304 304 305 304 304 303 302 301 301 299 297 295 295 294 293 293 293 293 293 293 292 291 290 290 290 290 290 291 291 291 291 291 296 299 301 302 302 302 304
308 308 307 306 304 303 302 303 302 301 301 300 300 298 297 295 294 294 293 293 292 292 292 292 291 291 291 291 290 290 289 289 290 290 290 291 291 291 294 298 300 301 301 301
308 308 305 305 304 304 301 301 300 300 299 297 296 296 295 294 293 293 292 292 291 290 290 290 289 290 290 290 290 289 289 289 289 290 290 290 291 290 290 292 296 298 299 300
307 307 307 305 303 302 301 299 298 297 296 295 294 293 293 292 292 292 291 290 290 290 289 288 288 288 288 288 289 290 290 290 290 290 289 289 290 290 290 290 291 296 298 298
306 302 302 301 301 300 300 298 298 297 295 293 292 291 291 291 290 290 289 289 289 288 288 288 288 288 288 289 289 289 289 289 289 289 288 289 289 289 289 290 290 291 295 298
301 301 301 300 300 299 298 298 297 293 292 291 290 290 289 289 289 288 289 288 288 288 287 287 287 287 288 289 288 288 288 288 288 287 288 288 288 288 288 288 288 290 291 294
300 300 298 298 297 296 295 293 292 291 291 290 290 289 288 288 287 288 287 287 287 287 287 287 287 287 288 288 288 288 288 288 288 287 287 287 287 288 287 287 287 288 290 292
298 298 296 294 294 293 292 291 290 291 290 290 289 288 288 288 287 287 287 287 287 287 287 286 286 286 287 288 287 288 288 288 287 287 287 287 287 287 287 286 287 287 288 291
296 294 294 294 293 292 291 290 290 290 289 288 288 287 287 287 287 287 287 287 287 286 286 286 286 286 286 287 287 287 288 287 287 287 286 286 286 287 286 286 286 287 288 289
296 295 293 292 291 291 291 290 289 288 288 287 287 287 286 286 286 286 286 286 286 285 285 285 286 286 286 287 286 287 287 287 287 286 286 286 286 286 285 286 286 286 287 288
296 294 291 291 291 291 290 289 288 287 287 286 286 286 286 285 285 285 285 285 284 284 285 285 285 285 285 285 286 286 286 287 286 285 285 285 285 285 285 285 286 286 287 287
293 291 291 291 290 289 288 287 286 286 286 285 285 285 284 284 284 283 283 283 283 284 284 284 283 284 285 285 286 286 286 285 285 285 285 285 285 285 285 286 286 286 286 286
291 291 291 290 288 286 286 286 286 285 285 284 283 282 282 281 282 282 282 282 282 283 283 283 283 284 284 285 285 285 285 285 286 286 286 285 285 285 285 285 285 285 285 286
292 291 289 287 286 286 286 286 285 284 283 283 281 280 280 280 281 280 281 281 282 282 282 282 283 283 284 284 284 285 285 285 286 285 284 284 284 284 284 284 284 284 285 286
291 288 287 286 286 286 285 285 284 284 283 282 281 280 280 280 280 280 280 281 281 281 281 282 283 283 283 284 283 284 285 285 284 284 283 283 283 283 284 284 284 285 286 286
287 286 286 286 285 285 285 284 284 283 283 282 282 281 281 281 281 280 280 281 283 282 283 283 284 284 283 284 284 284 284 283 283 282 282 282 282 283 283 284 285 285 286 287
286 286 286 285 284 284 284 284 283 283 283 283 282 282 282 280 279 281 282 282 282 283 283 283 284 284 283 283 283 283 283 282 282 282 282 282 282 282 283 283 284 285 286 287
286 285 284 284 284 284 284 283 282 283 283 282 282 282 282 282 282 282 282 282 282 283 283 283 283 283 283 283 282 282 282 282 282 282 281 281 281 282 282 283 284 285 286 287
285 284 284 284 283 283 283 283 283 282 282 281 282 282 282 282 282 282 282 282 283 283 283 283 283 283 283 283 282 282 282 282 281 281 281 281 281 281 282 283 283 284 285 286
Wind_Speed
4 4 3 5 7 10 11 9 6 6 8 9 9 10 12 11 10 10 9 8 7 7 7 9 11 11 10 11 11 11 10 11 13 13 12 11 12 14 15 14 15 16 17 19
2 5 3 4 7 5 8 8 7 7 7 3 7 8 6 7 6 6 5 5 7 7 8 9 10 12 13 14 14 14 13 13 14 15 15 15 14 14 17 17 17 17 16 18
2 4 3 3 8 7 4 5 6 2 6 3 4 4 4 3 3 5 4 6 7 8 10 11 13 15 17 17 18 18 17 15 15 15 16 17 16 16 17 19 20 20 20 20
2 3 2 3 3 2 4 2 4 2 5 3 3 3 2 2 2 3 6 8 10 12 13 14 14 14 16 17 17 17 17 18 18 19 18 18 17 17 17 19 22 23 22 23
3 3 1 1 2 3 5 2 2 2 2 3 3 3 5 3 2 3 6 7 8 8 10 12 14 16 17 18 17 17 16 18 19 19 20 19 20 20 18 20 22 25 24 24
2 2 2 4 4 1 2 3 2 1 1 2 3 4 5 2 4 4 5 6 7 7 8 8 9 12 13 14 16 17 18 19 19 17 16 18 20 21 21 20 22 24 27 26
3 3 0 4 3 1 3 4 2 1 1 0 2 4 2 3 6 10 11 12 13 11 11 11 12 15 14 14 15 18 20 20 21 21 21 19 20 19 19 20 21 25 27 28
1 3 2 5 4 3 3 1 0 1 2 3 3 3 4 7 8 10 12 13 13 15 15 16 16 18 18 17 16 18 19 20 20 21 20 20 20 20 18 19 18 21 25 29
3 2 2 5 2 0 1 1 2 3 2 2 4 6 7 9 10 11 13 14 14 15 17 16 15 18 21 20 20 22 21 20 19 21 21 20 21 21 22 18 19 20 23 29
3 5 7 7 5 4 4 3 3 2 4 5 5 7 9 10 11 12 13 14 16 18 19 18 17 18 19 18 19 19 20 19 19 21 21 22 21 21 22 22 21 21 22 25
7 9 4 10 9 5 5 5 5 6 6 6 8 8 10 11 12 14 15 17 18 20 21 22 21 20 20 19 18 20 20 21 20 20 20 22 23 24 24 22 21 22 24 24
4 4 3 3 3 7 7 6 7 7 6 8 9 10 11 14 14 15 16 17 18 19 21 23 23 24 23 21 19 20 20 21 20 22 24 25 24 27 26 26 24 24 24 24
3 4 2 3 3 5 7 8 8 8 9 10 10 13 14 17 19 19 20 18 19 21 22 24 24 24 23 20 19 21 22 21 22 23 23 24 25 24 29 33 25 25 24 24
9 6 3 6 3 5 6 7 8 10 11 13 16 17 19 19 19 19 18 19 21 22 25 26 24 25 21 19 19 21 20 21 23 23 22 21 22 25 26 26 30 30 24 22
10 10 7 5 5 6 6 8 10 12 13 15 16 20 20 20 20 19 20 22 24 25 28 27 26 25 20 19 21 21 19 19 20 23 24 24 20 24 27 27 27 27 28 24
12 9 7 6 5 6 7 9 12 15 14 17 20 22 21 20 23 24 25 26 23 26 31 31 29 29 26 23 24 22 20 19 20 22 22 22 24 26 26 26 26 26 26 25
14 9 9 8 7 7 9 11 14 19 22 24 25 24 24 26 28 31 32 31 34 36 34 32 31 28 26 26 24 23 20 23 23 22 26 22 21 25 26 28 28 27 26 26
9 6 5 5 6 7 11 14 19 22 24 26 27 28 31 33 35 37 38 37 37 34 32 29 24 24 23 22 23 22 24 25 24 24 23 22 23 24 26 26 27 25 26 26
9 7 6 6 8 11 14 18 20 23 25 26 27 30 31 31 29 29 28 28 28 28 29 25 26 26 25 26 23 24 27 27 26 22 22 22 23 25 26 25 25 22 24 25
10 7 7 8 11 13 16 18 20 23 23 23 25 26 24 23 26 28 27 27 27 26 25 25 25 25 22 19 20 21 23 22 21 20 21 23 25 26 26 25 25 26 28 27
9 7 8 10 12 14 16 19 21 22 23 22 22 22 22 23 23 24 23 24 23 22 23 24 22 21 19 18 19 20 21 22 24 23 25 28 27 26 26 28 29 28 28 26
7 8 10 12 14 16 17 18 19 20 20 20 19 19 21 21 21 22 19 21 24 24 25 25 25 21 21 21 22 22 23 23 21 26 28 25 24 25 26 25 25 25 24 24
7 9 10 13 13 14 15 16 16 17 18 19 19 18 19 20 18 20 23 22 25 25 24 24 22 22 21 22 21 18 20 21 25 23 21 20 21 21 21 21 22 22 21 21
8 9 11 11 12 13 12 13 14 13 14 14 15 15 18 21 21 18 20 23 22 22 22 21 21 20 18 16 17 17 21 19 18 17 17 16 17 19 18 18 17 16 17 18
9 10 9 10 10 10 11 12 11 11 12 12 14 16 17 18 20 23 23 22 22 21 21 20 18 17 17 16 17 17 16 16 17 16 17 18 18 16 15 14 13 13 12 12
9 8 8 8 8 8 9 10 9 11 13 15 16 17 19 20 20 21 21 21 21 19 18 18 18 18 18 17 16 16 16 17 17 17 15 16 15 13 12 12 11 10 9 7
8 7 6 7 7 7 7 8 9 10 12 16 18 17 20 20 20 20 21 22 21 18 16 16 16 17 17 17 17 17 17 16 15 15 14 13 12 11 10 9 9 7 6 4
Wind_Direction
55 28 37 27 25 32 47 20 65 116 131 150 152 145 136 130 123 116 102 100 77 58 39 31 24 17 3 353 341 336 330 319 313 310 307 298 284 283 279 269 258 252 247 244
5 35 44 66 36 38 39 31 68 86 103 121 120 113 140 131 128 120 95 65 58 43 26 15 4 353 346 340 337 333 327 319 311 304 302 295 291 277 270 270 265 257 250 245
22 359 314 191 20 16 19 30 340 11 38 144 171 171 169 145 119 93 50 25 15 9 5 354 349 340 332 330 327 322 324 319 315 309 302 297 292 283 270 259 259 258 254 251
325 298 292 62 44 18 317 360 19 30 34 358 320 80 78 51 24 13 9 6 356 342 336 337 337 326 327 328 324 323 322 317 314 312 309 305 297 289 281 270 257 254 252 253
306 304 58 178 23 10 4 52 41 355 109 93 111 173 215 153 53 3 353 341 335 334 323 320 318 320 320 322 322 325 324 322 319 313 307 304 300 294 287 277 267 257 253 251
319 311 289 58 116 31 282 228 114 34 95 139 174 259 75 97 14 344 323 322 316 314 311 302 296 305 308 306 306 309 312 319 318 316 309 308 303 300 296 289 278 265 255 253
245 283 164 117 132 301 250 52 102 110 56 209 260 22 46 340 323 318 323 321 320 318 310 306 299 302 308 307 310 307 310 310 308 312 312 304 304 305 299 291 283 274 260 252
260 254 251 158 156 254 55 42 189 188 230 263 306 324 302 299 313 313 310 313 312 310 307 305 303 306 311 311 308 309 310 311 311 312 310 308 306 305 305 303 290 281 271 256
268 9 94 183 275 201 297 317 237 234 237 259 263 282 298 303 305 304 305 305 302 300 298 300 302 305 306 307 305 307 308 311 309 310 311 311 309 303 295 292 291 283 271 261
310 182 231 225 231 247 242 234 227 219 214 247 271 280 285 291 296 296 294 293 292 292 297 299 300 295 293 296 298 299 302 306 306 309 311 313 306 300 294 291 289 289 281 272
258 258 256 241 231 226 214 219 221 237 245 257 269 277 283 287 286 287 290 289 294 297 297 296 297 294 294 293 293 295 296 298 300 303 304 306 303 303 299 291 285 290 289 281
265 93 276 94 175 209 205 215 225 239 255 272 275 275 277 282 285 286 287 293 293 288 289 292 291 291 292 288 286 288 289 291 291 292 298 301 304 301 296 297 289 272 276 278
261 179 159 188 219 216 205 223 245 257 270 275 277 281 281 283 288 290 292 293 291 291 289 291 288 287 289 285 283 282 283 283 286 288 292 296 295 299 303 303 297 284 272 275
210 202 206 227 222 227 230 251 265 275 281 284 286 284 288 289 291 291 292 295 295 294 294 292 287 283 281 280 280 286 286 284 289 293 294 295 297 297 296 300 302 301 287 281
203 205 203 199 221 235 251 266 276 284 290 287 290 291 291 288 289 292 296 303 305 301 303 297 290 286 280 277 282 287 288 290 290 293 298 305 296 291 292 296 298 292 296 288
188 197 207 209 227 249 267 279 288 295 296 295 296 294 291 288 290 296 300 304 303 302 304 300 291 288 281 279 282 283 283 287 291 296 295 299 292 293 293 294 295 298 292 293
175 191 208 225 242 258 276 288 292 299 303 303 301 297 292 290 292 295 299 298 302 303 300 299 299 302 288 279 280 279 279 287 297 295 299 302 294 292 289 291 291 292 292 287
192 190 201 227 243 269 288 299 305 306 306 303 301 297 295 295 297 299 302 304 305 301 301 307 308 304 297 282 277 275 278 290 294 300 309 304 299 292 291 289 288 291 289 290
192 202 217 249 276 295 304 308 309 310 310 310 309 306 305 307 309 308 307 302 301 302 303 300 297 298 289 282 277 277 281 288 294 297 296 295 291 289 294 290 289 291 287 289
192 213 245 275 294 304 310 312 311 312 313 311 309 309 310 309 305 305 306 301 302 305 308 305 303 305 302 294 286 284 293 297 297 294 295 298 298 297 294 291 288 284 284 287
202 234 267 290 303 312 315 316 318 319 321 320 317 316 315 315 317 312 311 309 316 313 312 314 318 314 311 304 297 297 300 303 301 296 295 297 295 289 287 285 287 285 283 287
220 258 280 295 305 312 318 322 325 327 326 325 325 323 321 321 318 316 313 310 312 314 317 315 312 313 308 303 296 291 292 293 287 293 298 296 292 289 288 288 288 286 285 284
244 270 289 303 311 318 326 330 333 331 333 335 336 335 332 329 326 321 321 323 317 318 315 316 318 313 313 308 307 304 297 291 298 300 298 296 293 293 292 290 292 289 287 285
266 284 299 306 316 325 332 334 336 342 347 348 349 342 339 335 334 333 320 324 328 329 327 330 328 324 323 315 307 301 301 305 308 307 302 301 296 294 295 297 298 292 287 285
281 292 299 310 322 329 333 339 345 347 350 349 346 343 342 336 323 332 335 335 334 333 333 338 339 338 336 328 322 320 317 314 314 308 305 305 305 299 296 296 297 297 297 298
282 290 298 307 317 326 333 339 338 340 343 344 344 344 341 336 338 339 341 340 339 340 339 343 345 343 338 336 332 327 321 318 315 314 309 308 310 302 299 298 298 299 299 303
276 287 296 303 313 321 327 326 327 332 339 337 336 345 337 339 343 343 345 350 348 347 346 346 350 348 346 344 343 340 334 329 326 323 320 312 311 310 305 298 301 299 290 291